Weather in Shikhazany

Russia / Chuvash Republic     55°33′41″N   47°23′01″E
temp.,
°C
wind,
m/s
gust,
m/s
humid.,
%
clouds,
%
prec.,
mm/h
press.,
hPa
HPBL,
m
13 may, thu
thu1300:00+15sse35607 0.0 102461
03:00+14se346768 0.0 102453
06:00+15ese49707 0.0 1024238
09:00+21ese6105231 0.0 1023671
12:00+23se71050100 0.0 10221134
15:00+23se61155100 0.1 10211120
18:00+21se6136362 0.0 1020542
21:00+16sse41280100 0.0 1020254
14 may, fri
fri1400:00+15sse5148790 1.7 1020357
03:00+13sse379252 2.6 1020133
06:00+15ssw2385100 0.0 1021112
09:00+21s3471100 0.0 1021497
12:00+24s4558100 0.0 10211160
15:00+25s575310 0.0 10201707
18:00+23sse49625 0.0 1019245
21:00+18sse477195 0.0 1019114
15 may, sat
sat1500:00+17s347699 0.0 101958
03:00+16sse357345 0.0 101969
06:00+17sse4971100 0.0 1019207
09:00+23s61251100 0.0 1018451
12:00+26s71143100 0.0 10181060
15:00+27s7104124 0.0 10181266
18:00+22s4115796 0.0 1017279
21:00+17sse412672 0.0 1017180
16 may, sun
sun1600:00+16s413635 0.0 1017198
03:00+15s412605 0.0 1017189
06:00+17s3136766 0.0 1017308
09:00+24ssw6114874 0.0 1017583
12:00+27ssw6938100 0.0 10161413
15:00+27sw5744100 0.0 10161843
18:00+23s3862100 0.0 1015194
21:00+18sw34765 0.0 101647
17 may, mon
mon1700:00+17sw337898 0.0 101637
03:00+15sw228286 0.0 101714
06:00+18wsw12755 0.0 101888
09:00+23w125998 0.0 1018504
12:00+26sw124711 0.0 10181172
15:00+28ene134025 0.0 10171502
18:00+26n23615 0.0 101752
21:00+19e478084 0.4 101899